WEN968 CYYC-CYQR

Flight info

Callsign WEN968
Flight time 1h 16m
Altitude 21000
Route VETBI Q991 LIBOS ODGOV ODGOV6
Aircraft DH8D/M-SDE3/C

Departure

Time 2026-04-26 20:44
Airport Calgary International Airport (CYYC)

Arrival

Time 2026-04-26 22:00
Airport Regina International Airport (CYQR)
Time Latitude Longitude Altitude Speed Heading
2026-04-26 20:18 51.12903 -114.01197 3559 ft 0 kts 344°
2026-04-26 20:19 51.12903 -114.01198 3559 ft 0 kts 345°
2026-04-26 20:31 51.12902 -114.01198 3558 ft 0 kts 336°
2026-04-26 20:31 51.12893 -114.01187 3559 ft 2 kts 336°
2026-04-26 20:31 51.12879 -114.01180 3558 ft 2 kts 342°
2026-04-26 20:32 51.12865 -114.01172 3558 ft 2 kts 341°
2026-04-26 20:32 51.12851 -114.01165 3558 ft 2 kts 341°
2026-04-26 20:32 51.12836 -114.01157 3558 ft 2 kts 341°
2026-04-26 20:32 51.12822 -114.01150 3558 ft 2 kts 341°
2026-04-26 20:33 51.12808 -114.01142 3558 ft 2 kts 341°
2026-04-26 20:33 51.12793 -114.01135 3558 ft 2 kts 341°
2026-04-26 20:33 51.12788 -114.01132 3558 ft 0 kts 341°
2026-04-26 20:35 51.12794 -114.01137 3558 ft 3 kts 327°
2026-04-26 20:35 51.12800 -114.01180 3557 ft 5 kts 241°
2026-04-26 20:35 51.12764 -114.01228 3555 ft 8 kts 225°
2026-04-26 20:35 51.12715 -114.01302 3552 ft 11 kts 221°
2026-04-26 20:36 51.12653 -114.01392 3551 ft 12 kts 222°
2026-04-26 20:36 51.12590 -114.01481 3551 ft 11 kts 222°
2026-04-26 20:36 51.12524 -114.01559 3551 ft 11 kts 200°
2026-04-26 20:36 51.12447 -114.01572 3551 ft 11 kts 183°
2026-04-26 20:37 51.12368 -114.01568 3551 ft 11 kts 177°
2026-04-26 20:37 51.12293 -114.01574 3551 ft 11 kts 188°
2026-04-26 20:37 51.12215 -114.01577 3551 ft 10 kts 179°
2026-04-26 20:37 51.12141 -114.01591 3550 ft 11 kts 194°
2026-04-26 20:38 51.12069 -114.01646 3550 ft 11 kts 211°
2026-04-26 20:38 51.12008 -114.01707 3551 ft 9 kts 210°
2026-04-26 20:38 51.11926 -114.01779 3553 ft 14 kts 206°
2026-04-26 20:38 51.11824 -114.01798 3553 ft 16 kts 180°
2026-04-26 20:39 51.11668 -114.01796 3553 ft 28 kts 180°
2026-04-26 20:39 51.11540 -114.01794 3553 ft 26 kts 180°
2026-04-26 20:39 51.11311 -114.01799 3551 ft 23 kts 180°
2026-04-26 20:39 51.11153 -114.01798 3551 ft 23 kts 179°
2026-04-26 20:40 51.10989 -114.01798 3551 ft 24 kts 180°
2026-04-26 20:40 51.10794 -114.01799 3547 ft 31 kts 180°
2026-04-26 20:40 51.10577 -114.01798 3545 ft 29 kts 180°
2026-04-26 20:40 51.10552 -114.01798 3545 ft 0 kts 180°
2026-04-26 20:41 51.10549 -114.01798 3545 ft 4 kts 180°
2026-04-26 20:41 51.10442 -114.01798 3545 ft 26 kts 180°
2026-04-26 20:41 51.10242 -114.01798 3545 ft 27 kts 178°
2026-04-26 20:41 51.10064 -114.01797 3545 ft 24 kts 181°
2026-04-26 20:42 51.09890 -114.01798 3545 ft 26 kts 179°
2026-04-26 20:42 51.09712 -114.01819 3545 ft 21 kts 217°
2026-04-26 20:42 51.09692 -114.02012 3544 ft 20 kts 271°
2026-04-26 20:42 51.09774 -114.02142 3541 ft 30 kts 354°
2026-04-26 20:43 51.10222 -114.02134 3541 ft 95 kts 358°
2026-04-26 20:43 51.11054 -114.02135 3549 ft 140 kts
2026-04-26 20:43 51.12088 -114.02157 3646 ft 157 kts 358°
2026-04-26 20:43 51.13205 -114.02185 4005 ft 161 kts 358°
2026-04-26 20:44 51.14292 -114.02216 4577 ft 153 kts 358°
2026-04-26 20:44 51.15338 -114.02254 5044 ft 151 kts
2026-04-26 20:44 51.16372 -114.02295 5492 ft 150 kts 359°
2026-04-26 20:44 51.17432 -114.02337 5821 ft 157 kts
2026-04-26 20:45 51.18568 -114.02374 6064 ft 167 kts 359°
2026-04-26 20:45 51.19757 -114.02393 6342 ft 175 kts 359°
2026-04-26 20:45 51.21009 -114.02420 6669 ft 180 kts 360°
2026-04-26 20:45 51.22258 -114.02350 6989 ft 184 kts 12°
2026-04-26 20:46 51.23312 -114.01263 7373 ft 185 kts 51°
2026-04-26 20:46 51.23956 -113.99496 7793 ft 185 kts 57°
2026-04-26 20:46 51.24571 -113.97688 8203 ft 184 kts 57°
2026-04-26 20:46 51.25048 -113.95810 8600 ft 188 kts 76°
2026-04-26 20:47 51.25422 -113.93895 9001 ft 177 kts 51°
2026-04-26 20:47 51.25782 -113.92708 9315 ft 177 kts 67°
2026-04-26 20:47 51.25527 -113.90094 9814 ft 196 kts 115°
2026-04-26 20:47 51.24899 -113.88001 10119 ft 218 kts 109°
2026-04-26 20:48 51.24394 -113.85648 10544 ft 229 kts 103°
2026-04-26 20:48 51.23991 -113.83195 11024 ft 229 kts 100°
2026-04-26 20:48 51.23650 -113.80707 11495 ft 229 kts 98°
2026-04-26 20:48 51.23352 -113.78198 11975 ft 229 kts 97°
2026-04-26 20:49 51.23087 -113.75686 12455 ft 228 kts 96°
2026-04-26 20:49 51.22851 -113.73196 12923 ft 227 kts 95°
2026-04-26 20:49 51.22634 -113.70735 13392 ft 224 kts 95°
2026-04-26 20:49 51.22429 -113.68273 13853 ft 220 kts 94°
2026-04-26 20:50 51.22239 -113.65888 14311 ft 216 kts 94°
2026-04-26 20:50 51.22061 -113.63564 14757 ft 210 kts 93°
2026-04-26 20:50 51.21891 -113.61296 15186 ft 203 kts 93°
2026-04-26 20:50 51.21727 -113.59067 15487 ft 204 kts 93°
2026-04-26 20:51 51.21559 -113.56758 15769 ft 213 kts 93°
2026-04-26 20:51 51.21392 -113.54410 16053 ft 221 kts 92°
2026-04-26 20:51 51.21218 -113.51927 16330 ft 230 kts 92°
2026-04-26 20:51 51.21038 -113.49341 16653 ft 237 kts 92°
2026-04-26 20:52 51.20858 -113.46742 17008 ft 241 kts 92°
2026-04-26 20:52 51.20671 -113.44041 17372 ft 245 kts 92°
2026-04-26 20:52 51.20485 -113.41356 17719 ft 248 kts 92°
2026-04-26 20:52 51.20292 -113.38587 18074 ft 251 kts 92°
2026-04-26 20:53 51.20099 -113.35822 18418 ft 253 kts 92°
2026-04-26 20:53 51.19905 -113.33042 18765 ft 255 kts 93°
2026-04-26 20:53 51.19705 -113.30198 19137 ft 257 kts 93°
2026-04-26 20:53 51.19505 -113.27357 19501 ft 258 kts 93°
2026-04-26 20:54 51.19305 -113.24529 19855 ft 259 kts 93°
2026-04-26 20:54 51.19104 -113.21699 20209 ft 259 kts 92°
2026-04-26 20:54 51.18901 -113.18845 20574 ft 258 kts 92°
2026-04-26 20:54 51.18697 -113.16001 20902 ft 258 kts 92°
2026-04-26 20:55 51.18492 -113.13124 21026 ft 267 kts 92°
2026-04-26 20:55 51.18277 -113.10107 21067 ft 280 kts 92°
2026-04-26 20:55 51.18051 -113.06950 21078 ft 292 kts 92°
2026-04-26 20:55 51.17814 -113.03668 21083 ft 303 kts 93°
2026-04-26 20:56 51.17567 -113.00283 21085 ft 313 kts 93°
2026-04-26 20:56 51.17316 -112.96845 21082 ft 321 kts 93°
2026-04-26 20:56 51.17050 -112.93231 21082 ft 327 kts 93°
2026-04-26 20:56 51.16784 -112.89635 21078 ft 331 kts 93°
2026-04-26 20:57 51.16510 -112.85944 21078 ft 334 kts 93°
2026-04-26 20:57 51.16235 -112.82265 21073 ft 336 kts 93°
2026-04-26 20:57 51.15954 -112.78513 21072 ft 336 kts 93°
2026-04-26 20:57 51.15680 -112.74870 21072 ft 336 kts 93°
2026-04-26 20:58 51.15402 -112.71188 21073 ft 336 kts 93°
2026-04-26 20:58 51.15122 -112.67487 21070 ft 336 kts 93°
2026-04-26 20:58 51.14834 -112.63722 21068 ft 336 kts 93°
2026-04-26 20:58 51.14555 -112.60080 21070 ft 336 kts 93°
2026-04-26 20:59 51.14270 -112.56372 21071 ft 336 kts 93°
2026-04-26 20:59 51.13986 -112.52675 21070 ft 336 kts 93°
2026-04-26 20:59 51.13700 -112.48975 21067 ft 336 kts 93°
2026-04-26 20:59 51.13412 -112.45268 21069 ft 336 kts 93°
2026-04-26 21:00 51.13126 -112.41610 21071 ft 336 kts 93°
2026-04-26 21:00 51.12836 -112.37904 21078 ft 337 kts 93°
2026-04-26 21:00 51.12544 -112.34202 21081 ft 337 kts 94°
2026-04-26 21:00 51.12254 -112.30530 21083 ft 337 kts 94°
2026-04-26 21:01 51.11958 -112.26808 21086 ft 338 kts 94°
2026-04-26 21:01 51.11665 -112.23132 21093 ft 338 kts 94°
2026-04-26 21:01 51.11368 -112.19420 21090 ft 338 kts 94°
2026-04-26 21:01 51.11072 -112.15735 21091 ft 338 kts 94°
2026-04-26 21:02 51.10772 -112.12015 21094 ft 338 kts 94°
2026-04-26 21:02 51.10472 -112.08316 21092 ft 338 kts 94°
2026-04-26 21:02 51.10172 -112.04630 21095 ft 338 kts 94°
2026-04-26 21:02 51.09867 -112.00901 21097 ft 338 kts 94°
2026-04-26 21:03 51.09565 -111.97217 21096 ft 338 kts 94°
2026-04-26 21:03 51.09256 -111.93463 21094 ft 338 kts 94°
2026-04-26 21:03 51.08950 -111.89754 21095 ft 338 kts 94°
2026-04-26 21:03 51.08641 -111.86037 21098 ft 338 kts 94°
2026-04-26 21:04 51.08335 -111.82359 21095 ft 338 kts 94°
2026-04-26 21:04 51.08026 -111.78661 21095 ft 338 kts 94°
2026-04-26 21:04 51.07710 -111.74897 21096 ft 337 kts 93°
2026-04-26 21:04 51.07398 -111.71204 21095 ft 337 kts 93°
2026-04-26 21:05 51.07085 -111.67504 21095 ft 337 kts 93°
2026-04-26 21:05 51.06770 -111.63794 21095 ft 337 kts 93°
2026-04-26 21:05 51.06452 -111.60062 21096 ft 337 kts 93°
2026-04-26 21:05 51.06137 -111.56393 21093 ft 337 kts 93°
2026-04-26 21:06 51.05821 -111.52708 21095 ft 337 kts 93°
2026-04-26 21:06 51.05500 -111.48985 21086 ft 337 kts 93°
2026-04-26 21:06 51.05179 -111.45287 21081 ft 337 kts 93°
2026-04-26 21:06 51.04857 -111.41582 21077 ft 337 kts 93°
2026-04-26 21:07 51.04534 -111.37879 21072 ft 337 kts 93°
2026-04-26 21:07 51.04212 -111.34203 21069 ft 337 kts 94°
2026-04-26 21:07 51.03889 -111.30526 21070 ft 337 kts 94°
2026-04-26 21:07 51.03564 -111.26842 21067 ft 337 kts 94°
2026-04-26 21:08 51.03237 -111.23149 21065 ft 338 kts 94°
2026-04-26 21:08 51.02908 -111.19443 21065 ft 338 kts 94°
2026-04-26 21:08 51.02580 -111.15765 21066 ft 337 kts 94°
2026-04-26 21:08 51.02251 -111.12100 21066 ft 337 kts 94°
2026-04-26 21:09 51.01921 -111.08426 21070 ft 337 kts 94°
2026-04-26 21:09 51.01586 -111.04713 21066 ft 336 kts 94°
2026-04-26 21:09 51.01254 -111.01047 21066 ft 336 kts 94°
2026-04-26 21:09 51.00919 -110.97355 21067 ft 336 kts 94°
2026-04-26 21:10 51.00584 -110.93677 21066 ft 336 kts 94°
2026-04-26 21:10 51.00250 -110.90032 21066 ft 336 kts 94°
2026-04-26 21:10 50.99911 -110.86333 21062 ft 336 kts 94°
2026-04-26 21:10 50.99572 -110.82655 21059 ft 336 kts 94°
2026-04-26 21:11 50.99233 -110.78982 21065 ft 337 kts 94°
2026-04-26 21:11 50.98887 -110.75253 21052 ft 337 kts 94°
2026-04-26 21:11 50.98544 -110.71581 21060 ft 337 kts 94°
2026-04-26 21:11 50.98198 -110.67876 21059 ft 338 kts 94°
2026-04-26 21:12 50.97857 -110.64238 21057 ft 338 kts 94°
2026-04-26 21:12 50.97504 -110.60491 21058 ft 338 kts 94°
2026-04-26 21:12 50.97153 -110.56776 21063 ft 338 kts 94°
2026-04-26 21:12 50.96805 -110.53107 21061 ft 338 kts 94°
2026-04-26 21:13 50.96456 -110.49438 21057 ft 339 kts 94°
2026-04-26 21:13 50.96101 -110.45718 21066 ft 339 kts 93°
2026-04-26 21:13 50.95743 -110.41981 21071 ft 339 kts 94°
2026-04-26 21:13 50.95390 -110.38305 21067 ft 339 kts 94°
2026-04-26 21:14 50.95035 -110.34628 21069 ft 339 kts 94°
2026-04-26 21:14 50.94675 -110.30913 21074 ft 339 kts 94°
2026-04-26 21:14 50.94314 -110.27192 21058 ft 339 kts 95°
2026-04-26 21:14 50.93952 -110.23476 21072 ft 339 kts 94°
2026-04-26 21:15 50.93593 -110.19804 21071 ft 340 kts 94°
2026-04-26 21:15 50.93226 -110.16064 21079 ft 340 kts 94°
2026-04-26 21:15 50.92863 -110.12371 21072 ft 341 kts 94°
2026-04-26 21:15 50.92497 -110.08635 21075 ft 341 kts 94°
2026-04-26 21:16 50.92131 -110.04912 21072 ft 342 kts 94°
2026-04-26 21:16 50.91759 -110.01185 21076 ft 343 kts 95°
2026-04-26 21:16 50.91382 -109.97430 21063 ft 343 kts 95°
2026-04-26 21:16 50.91007 -109.93687 21077 ft 342 kts 95°
2026-04-26 21:17 50.90632 -109.89965 21069 ft 343 kts 95°
2026-04-26 21:17 50.90258 -109.86258 21065 ft 344 kts 95°
2026-04-26 21:17 50.89875 -109.82468 21064 ft 345 kts 95°
2026-04-26 21:17 50.89496 -109.78730 21066 ft 345 kts 95°
2026-04-26 21:18 50.89112 -109.74960 21064 ft 346 kts 95°
2026-04-26 21:18 50.88730 -109.71220 21061 ft 346 kts 95°
2026-04-26 21:18 50.88343 -109.67445 21067 ft 346 kts 95°
2026-04-26 21:18 50.87954 -109.63667 21054 ft 347 kts 95°
2026-04-26 21:19 50.87561 -109.59851 21063 ft 348 kts 95°
2026-04-26 21:19 50.87169 -109.56065 21062 ft 348 kts 95°
2026-04-26 21:19 50.86772 -109.52261 21057 ft 349 kts 95°
2026-04-26 21:19 50.86377 -109.48473 21069 ft 350 kts 95°
2026-04-26 21:20 50.85979 -109.44663 21055 ft 350 kts 95°
2026-04-26 21:20 50.85577 -109.40814 21057 ft 351 kts 96°
2026-04-26 21:20 50.85176 -109.36998 21058 ft 351 kts 96°
2026-04-26 21:20 50.84769 -109.33143 21057 ft 351 kts 96°
2026-04-26 21:21 50.84365 -109.29335 21044 ft 352 kts 96°
2026-04-26 21:21 50.83958 -109.25503 21051 ft 351 kts 97°
2026-04-26 21:21 50.83548 -109.21649 21049 ft 352 kts 97°
2026-04-26 21:21 50.83141 -109.17844 21053 ft 353 kts 97°
2026-04-26 21:22 50.82731 -109.14024 21056 ft 353 kts 97°
2026-04-26 21:22 50.82317 -109.10174 21049 ft 354 kts 97°
2026-04-26 21:22 50.81903 -109.06335 21047 ft 354 kts 97°
2026-04-26 21:23 50.81141 -108.98692 21044 ft 354 kts 93°
2026-04-26 21:23 50.80954 -108.94785 21041 ft 354 kts 91°
2026-04-26 21:23 50.80785 -108.90904 21052 ft 354 kts 91°
2026-04-26 21:23 50.80616 -108.87033 21046 ft 355 kts 91°
2026-04-26 21:24 50.80442 -108.83110 21041 ft 355 kts 91°
2026-04-26 21:24 50.80267 -108.79220 21049 ft 355 kts 92°
2026-04-26 21:24 50.80090 -108.75331 21057 ft 356 kts 92°
2026-04-26 21:24 50.79909 -108.71413 21061 ft 357 kts 92°
2026-04-26 21:25 50.79727 -108.67510 21054 ft 358 kts 92°
2026-04-26 21:25 50.79543 -108.63593 21063 ft 358 kts 92°
2026-04-26 21:25 50.79356 -108.59650 21063 ft 359 kts 92°
2026-04-26 21:25 50.79167 -108.55711 21063 ft 360 kts 92°
2026-04-26 21:26 50.78977 -108.51777 21057 ft 361 kts 92°
2026-04-26 21:26 50.78782 -108.47743 21059 ft 361 kts 93°
2026-04-26 21:26 50.78589 -108.43800 21059 ft 362 kts 93°
2026-04-26 21:26 50.78393 -108.39825 21063 ft 363 kts 93°
2026-04-26 21:27 50.78196 -108.35857 21061 ft 364 kts 93°
2026-04-26 21:27 50.77995 -108.31858 21064 ft 364 kts 94°
2026-04-26 21:27 50.77794 -108.27859 21055 ft 365 kts 94°
2026-04-26 21:27 50.77589 -108.23826 21055 ft 366 kts 95°
2026-04-26 21:28 50.77381 -108.19762 21060 ft 367 kts 95°
2026-04-26 21:28 50.77175 -108.15739 21059 ft 367 kts 95°
2026-04-26 21:28 50.76965 -108.11687 21056 ft 368 kts 95°
2026-04-26 21:28 50.76756 -108.07676 21056 ft 368 kts 95°
2026-04-26 21:29 50.76545 -108.03673 21054 ft 369 kts 96°
2026-04-26 21:29 50.76331 -107.99609 21049 ft 369 kts 96°
2026-04-26 21:29 50.76117 -107.95584 21056 ft 370 kts 96°
2026-04-26 21:29 50.75902 -107.91564 21059 ft 370 kts 95°
2026-04-26 21:30 50.75683 -107.87509 21042 ft 371 kts 96°
2026-04-26 21:30 50.75468 -107.83539 21046 ft 370 kts 96°
2026-04-26 21:30 50.75243 -107.79405 21044 ft 371 kts 96°
2026-04-26 21:30 50.75018 -107.75315 21041 ft 371 kts 96°
2026-04-26 21:31 50.74794 -107.71266 21023 ft 372 kts 96°
2026-04-26 21:31 50.74564 -107.67136 21037 ft 372 kts 96°
2026-04-26 21:31 50.74339 -107.63112 21040 ft 372 kts 96°
2026-04-26 21:31 50.74107 -107.59000 21042 ft 373 kts 96°
2026-04-26 21:32 50.73877 -107.54949 21038 ft 373 kts 96°
2026-04-26 21:32 50.73643 -107.50828 21045 ft 373 kts 96°
2026-04-26 21:32 50.73407 -107.46742 21032 ft 374 kts 96°
2026-04-26 21:32 50.73172 -107.42664 21033 ft 375 kts 96°
2026-04-26 21:33 50.72933 -107.38553 21042 ft 375 kts 96°
2026-04-26 21:33 50.72689 -107.34379 21052 ft 375 kts 97°
2026-04-26 21:33 50.72451 -107.30337 21058 ft 375 kts 97°
2026-04-26 21:33 50.72206 -107.26203 21054 ft 375 kts 97°
2026-04-26 21:34 50.71963 -107.22117 21053 ft 375 kts 98°
2026-04-26 21:34 50.71717 -107.17999 21055 ft 375 kts 98°
2026-04-26 21:34 50.71470 -107.13904 21052 ft 376 kts 98°
2026-04-26 21:34 50.71218 -107.09759 21051 ft 376 kts 98°
2026-04-26 21:35 50.70967 -107.05637 21048 ft 377 kts 98°
2026-04-26 21:35 50.70712 -107.01472 21039 ft 377 kts 98°
2026-04-26 21:35 50.70459 -106.97391 21029 ft 378 kts 98°
2026-04-26 21:35 50.70204 -106.93273 21039 ft 378 kts 98°
2026-04-26 21:36 50.69945 -106.89139 21033 ft 378 kts 98°
2026-04-26 21:36 50.69772 -106.86377 21028 ft 378 kts 98°
2026-04-26 21:36 50.69422 -106.80831 21030 ft 379 kts 98°
2026-04-26 21:36 50.69161 -106.76714 21040 ft 379 kts 98°
2026-04-26 21:37 50.68898 -106.72591 21047 ft 380 kts 98°
2026-04-26 21:37 50.68632 -106.68452 21039 ft 380 kts 98°
2026-04-26 21:37 50.68366 -106.64332 21033 ft 380 kts 99°
2026-04-26 21:37 50.68094 -106.60157 21030 ft 381 kts 99°
2026-04-26 21:38 50.67828 -106.56084 21037 ft 381 kts 99°
2026-04-26 21:38 50.67552 -106.51885 21032 ft 381 kts 99°
2026-04-26 21:38 50.67278 -106.47735 21024 ft 382 kts 99°
2026-04-26 21:38 50.67004 -106.43613 21036 ft 382 kts 99°
2026-04-26 21:39 50.66724 -106.39414 21034 ft 382 kts 99°
2026-04-26 21:39 50.66440 -106.35182 21039 ft 382 kts 99°
2026-04-26 21:39 50.66158 -106.31003 21035 ft 382 kts 100°
2026-04-26 21:39 50.65879 -106.26889 21042 ft 383 kts 100°
2026-04-26 21:40 50.65594 -106.22707 21042 ft 383 kts 100°
2026-04-26 21:40 50.65308 -106.18526 21033 ft 383 kts 101°
2026-04-26 21:40 50.65019 -106.14348 21059 ft 382 kts 101°
2026-04-26 21:40 50.64732 -106.10207 20820 ft 384 kts 101°
2026-04-26 21:41 50.64438 -106.05978 20448 ft 386 kts 101°
2026-04-26 21:41 50.64144 -106.01785 20027 ft 387 kts 100°
2026-04-26 21:41 50.63850 -105.97568 19591 ft 380 kts 100°
2026-04-26 21:41 50.63568 -105.93497 19165 ft 372 kts 100°
2026-04-26 21:42 50.63289 -105.89499 18759 ft 364 kts 100°
2026-04-26 21:42 50.63013 -105.85587 18359 ft 357 kts 100°
2026-04-26 21:42 50.62737 -105.81722 17965 ft 351 kts 100°
2026-04-26 21:42 50.62465 -105.77931 17553 ft 347 kts 100°
2026-04-26 21:43 50.62195 -105.74229 17147 ft 343 kts 100°
2026-04-26 21:43 50.61923 -105.70481 16751 ft 339 kts 99°
2026-04-26 21:43 50.61657 -105.66841 16368 ft 334 kts 99°
2026-04-26 21:43 50.61393 -105.63236 15998 ft 330 kts 99°
2026-04-26 21:44 50.61129 -105.59664 15635 ft 326 kts 99°
2026-04-26 21:44 50.60867 -105.56139 15268 ft 322 kts 99°
2026-04-26 21:44 50.60609 -105.52666 14908 ft 319 kts 99°
2026-04-26 21:44 50.60351 -105.49207 14563 ft 316 kts 99°
2026-04-26 21:45 50.60096 -105.45818 14228 ft 315 kts 99°
2026-04-26 21:45 50.59726 -105.42415 13873 ft 315 kts 110°
2026-04-26 21:45 50.58905 -105.39199 13554 ft 313 kts 117°
2026-04-26 21:45 50.58010 -105.36060 13218 ft 313 kts 117°
2026-04-26 21:46 50.57131 -105.32972 12892 ft 310 kts 118°
2026-04-26 21:46 50.56254 -105.29889 12566 ft 306 kts 118°
2026-04-26 21:46 50.55385 -105.26832 12253 ft 304 kts 118°
2026-04-26 21:46 50.54525 -105.23803 11941 ft 301 kts 117°
2026-04-26 21:47 50.53677 -105.20816 11622 ft 299 kts 117°
2026-04-26 21:47 50.52837 -105.17857 11309 ft 297 kts 117°
2026-04-26 21:47 50.51991 -105.14877 11002 ft 294 kts 117°
2026-04-26 21:47 50.51166 -105.11971 10700 ft 292 kts 117°
2026-04-26 21:48 50.50338 -105.09057 10399 ft 290 kts 117°
2026-04-26 21:48 50.49519 -105.06178 10096 ft 288 kts 117°
2026-04-26 21:48 50.48707 -105.03328 9795 ft 286 kts 116°
2026-04-26 21:48 50.47900 -105.00499 9508 ft 284 kts 116°
2026-04-26 21:49 50.47093 -104.97668 9207 ft 281 kts 116°
2026-04-26 21:49 50.46288 -104.94847 8917 ft 280 kts 116°
2026-04-26 21:49 50.45491 -104.92064 8630 ft 280 kts 116°
2026-04-26 21:49 50.44688 -104.89262 8333 ft 280 kts 115°
2026-04-26 21:50 50.43888 -104.86474 8043 ft 279 kts 115°
2026-04-26 21:50 50.43346 -104.84591 7851 ft 278 kts 116°
2026-04-26 21:50 50.41864 -104.81448 7463 ft 261 kts 139°
2026-04-26 21:50 50.40537 -104.79600 7191 ft 250 kts 140°
2026-04-26 21:51 50.39233 -104.77807 6934 ft 240 kts 140°
2026-04-26 21:51 50.38002 -104.76119 6715 ft 231 kts 140°
2026-04-26 21:51 50.36811 -104.74489 6467 ft 224 kts 140°
2026-04-26 21:51 50.35648 -104.72896 6230 ft 220 kts 140°
2026-04-26 21:52 50.34485 -104.71305 6001 ft 221 kts 140°
2026-04-26 21:52 50.33332 -104.69715 5895 ft 216 kts 139°
2026-04-26 21:52 50.32221 -104.68157 5851 ft 209 kts 139°
2026-04-26 21:52 50.31135 -104.66636 5758 ft 205 kts 139°
2026-04-26 21:53 50.30082 -104.65161 5639 ft 202 kts 139°
2026-04-26 21:53 50.29032 -104.63688 5385 ft 205 kts 139°
2026-04-26 21:53 50.27977 -104.62201 5070 ft 204 kts 138°
2026-04-26 21:53 50.26931 -104.60725 4732 ft 199 kts 139°
2026-04-26 21:54 50.25915 -104.59286 4431 ft 192 kts 137°
2026-04-26 21:54 50.25246 -104.57575 4163 ft 181 kts 95°
2026-04-26 21:54 50.25577 -104.55827 4112 ft 169 kts 52°
2026-04-26 21:54 50.26309 -104.54348 4046 ft 172 kts 47°
2026-04-26 21:55 50.27067 -104.52923 4006 ft 170 kts 47°
2026-04-26 21:55 50.27824 -104.51531 3984 ft 167 kts 46°
2026-04-26 21:55 50.28583 -104.50153 3975 ft 165 kts 46°
2026-04-26 21:55 50.29369 -104.48904 3991 ft 166 kts 32°
2026-04-26 21:56 50.30492 -104.48652 3889 ft 162 kts 340°
2026-04-26 21:56 50.31416 -104.49577 3830 ft 158 kts 320°
2026-04-26 21:56 50.32248 -104.50680 3747 ft 156 kts 318°
2026-04-26 21:56 50.33054 -104.51782 3663 ft 151 kts 317°
2026-04-26 21:57 50.33846 -104.52874 3597 ft 155 kts 317°
2026-04-26 21:57 50.34684 -104.54028 3521 ft 159 kts 317°
2026-04-26 21:57 50.35489 -104.55152 3428 ft 151 kts 317°
2026-04-26 21:57 50.36299 -104.56284 3440 ft 165 kts 318°
2026-04-26 21:58 50.37124 -104.57429 3309 ft 154 kts 316°
2026-04-26 21:58 50.37909 -104.58543 3140 ft 152 kts 316°
2026-04-26 21:58 50.38701 -104.59661 2910 ft 155 kts 316°
2026-04-26 21:58 50.39509 -104.60799 2710 ft 155 kts 316°
2026-04-26 21:59 50.40292 -104.61943 2520 ft 151 kts 315°
2026-04-26 21:59 50.41060 -104.63052 2315 ft 145 kts 316°
2026-04-26 21:59 50.41795 -104.64092 2127 ft 139 kts 317°
2026-04-26 21:59 50.42498 -104.65088 1914 ft 134 kts 316°
2026-04-26 22:00 50.43126 -104.65977 1893 ft 97 kts 319°
2026-04-26 22:00 50.43499 -104.66497 1893 ft 53 kts 316°
2026-04-26 22:00 50.43673 -104.66744 1893 ft 19 kts 318°
2026-04-26 22:00 50.43753 -104.66853 1893 ft 10 kts 332°
2026-04-26 22:01 50.43808 -104.66814 1893 ft 9 kts 60°
2026-04-26 22:01 50.43821 -104.66720 1893 ft 8 kts 91°
2026-04-26 22:01 50.43817 -104.66621 1893 ft 9 kts 96°
2026-04-26 22:01 50.43779 -104.66528 1892 ft 10 kts 137°
2026-04-26 22:02 50.43724 -104.66451 1892 ft 10 kts 138°
2026-04-26 22:02 50.43686 -104.66397 1893 ft 11 kts 138°
2026-04-26 22:02 50.43612 -104.66292 1893 ft 10 kts 137°
2026-04-26 22:02 50.43556 -104.66212 1893 ft 10 kts 138°
2026-04-26 22:03 50.43495 -104.66128 1893 ft 11 kts 138°
2026-04-26 22:03 50.43434 -104.66043 1893 ft 11 kts 137°
2026-04-26 22:03 50.43377 -104.65962 1893 ft 11 kts 137°
2026-04-26 22:03 50.43322 -104.65883 1893 ft 6 kts 137°
2026-04-26 22:04 50.43308 -104.65848 1893 ft 2 kts 82°
2026-04-26 22:04 50.43322 -104.65813 1893 ft 4 kts 50°
2026-04-26 22:04 50.43344 -104.65775 1893 ft 5 kts 46°
2026-04-26 22:04 50.43362 -104.65744 1893 ft 0 kts 47°
2026-04-26 22:05 50.43364 -104.65741 1893 ft 0 kts 47°